User: anonymous   Login
Location: Unspecified
(0.0000°N, 0.0000°E)
Time: 00:56:55
(UTC+00:00)
Language:

Tiungsat 1 - Orbit

View from above orbital plane
View from above orbital plane
View from above satellite
View from above satellite

Ground track
Ground track

The orbit data is extracted from the following two-line orbital elements,

1 26548U 00057D   17324.10613235 +.00000125 +00000-0 +29563-4 0  9992
2 26548 064.5514 233.6733 0017392 210.4338 149.5763 14.89103443929116
Epoch (UTC): 20 November 2017 02:32:49
Eccentricity: 0.0017392
inclination: 64.5514°
perigee height: 588 km
apogee height: 613 km
right ascension of ascending node: 233.6733°
argument of perigee: 210.4338°
revolutions per day: 14.89103443
mean anomaly at epoch: 149.5763°
orbit number at epoch: 92911

The dashed part of the orbit path shows where the satellite is in the earth's shadow,  

DLR